This is the latest recevied weather packets stored in our database for station/object DL4JCP-6. If no packets are shown the sender has not sent any weather packets the latest 1 day(s).
| Time | Temp. | Humidity | Pressure | Rain* | Wind** | Luminosity | Snow |
|---|---|---|---|---|---|---|---|
| 1778006291 | 12.78° C | 93% | 1006.5 hPa | 0 mm | 1.34 m/s, 57° | - | - |
| 1778005994 | 13.33° C | 93% | 1006.4 hPa | 0 mm | 0.89 m/s, 65° | - | - |
| 1778005991 | 13.33° C | 93% | 1006.4 hPa | 0 mm | 1.34 m/s, 65° | - | - |
| 1778005691 | 13.33° C | 93% | 1006.5 hPa | 0 mm | 0.89 m/s, 61° | - | - |
| 1778005391 | 13.33° C | 93% | 1006.6 hPa | 0 mm | 0.89 m/s, 57° | - | - |
| 1778005093 | 13.33° C | 93% | 1006.7 hPa | 0 mm | 0.45 m/s, 21° | - | - |
| 1778004791 | 13.33° C | 93% | 1006.8 hPa | 0 mm | 0.89 m/s, 20° | - | - |
| 1778004496 | 13.33° C | 93% | 1006.9 hPa | 0 mm | 1.34 m/s, 20° | - | - |
| 1778004194 | 13.33° C | 93% | 1007 hPa | 0 mm | 1.34 m/s, 16° | - | - |
| 1778004190 | 13.33° C | 93% | 1007 hPa | 0 mm | 0.89 m/s, 16° | - | - |
| 1778003891 | 13.33° C | 93% | 1007 hPa | 0 mm | 1.34 m/s, 342° | - | - |
| 1778003590 | 13.33° C | 93% | 1007 hPa | 0 mm | 1.79 m/s, 28° | - | - |
| 1778003294 | 13.33° C | 93% | 1007.1 hPa | 0 mm | 1.34 m/s, 335° | - | - |
| 1778003292 | 13.33° C | 93% | 1007.1 hPa | 0 mm | 1.79 m/s, 335° | - | - |
| 1778002990 | 13.33° C | 93% | 1007 hPa | 0 mm | 1.34 m/s, 10° | - | - |
| 1778002690 | 13.89° C | 93% | 1006.9 hPa | 0 mm | 1.34 m/s, 348° | - | - |
| 1778002394 | 13.89° C | 93% | 1006.9 hPa | 0 mm | 2.24 m/s, 22° | - | - |
| 1778002390 | 13.89° C | 93% | 1006.9 hPa | 0 mm | 2.24 m/s, 22° | - | - |
| 1778002092 | 13.89° C | 93% | 1006.9 hPa | 0 mm | 2.24 m/s, 30° | - | - |
| 1778001790 | 13.89° C | 93% | 1006.9 hPa | 0.25 mm | 1.79 m/s, 52° | - | - |
| 1778001494 | 13.89° C | 93% | 1007 hPa | 0.25 mm | 1.79 m/s, 25° | - | - |
| 1778001491 | 13.89° C | 93% | 1007 hPa | 0.25 mm | 2.68 m/s, 25° | - | - |
| 1778001191 | 13.89° C | 93% | 1007 hPa | 0.51 mm | 2.24 m/s, 17° | - | - |
| 1778000892 | 14.44° C | 93% | 1007.2 hPa | 0.76 mm | 1.34 m/s, 41° | - | - |
| 1778000593 | 14.44° C | 93% | 1007.3 hPa | 1.27 mm | 1.79 m/s, 24° | - | - |
* Rain latest hour (hover to see other rain measurements)
** Current wind speed in m/s (hover to see current wind gust speed)